TimeMDT,TemperatureF,Dew PointF,Humidity,Sea Level PressureIn,VisibilityMPH,Wind Direction,Wind SpeedMPH,Gust SpeedMPH,PrecipitationIn,Events,Conditions,WindDirDegrees,DateUTC
12:09 AM,51.8,39.2,62,30.85,10.0,Calm,Calm,-,N/A,,Scattered Clouds,0,2013-09-04 06:09:00
12:29 AM,51.8,39.2,62,30.85,10.0,WSW,5.8,-,N/A,,Scattered Clouds,250,2013-09-04 06:29:00
12:49 AM,51.8,39.2,62,30.85,10.0,SW,9.2,-,N/A,,Clear,220,2013-09-04 06:49:00
1:09 AM,51.8,41.0,67,30.84,10.0,SW,6.9,-,N/A,,Clear,220,2013-09-04 07:09:00
1:29 AM,51.8,41.0,67,30.84,10.0,SW,9.2,-,N/A,,Clear,230,2013-09-04 07:29:00
1:49 AM,50.0,41.0,71,30.84,10.0,SSW,12.7,-,N/A,,Clear,210,2013-09-04 07:49:00
2:09 AM,50.0,41.0,71,30.84,10.0,SW,13.8,-,N/A,,Clear,220,2013-09-04 08:09:00
2:29 AM,50.0,39.2,66,30.84,10.0,SW,13.8,-,N/A,,Clear,230,2013-09-04 08:29:00
2:49 AM,50.0,39.2,66,30.84,10.0,SW,12.7,-,N/A,,Clear,230,2013-09-04 08:49:00
3:09 AM,50.0,39.2,66,30.84,10.0,WSW,13.8,-,N/A,,Scattered Clouds,240,2013-09-04 09:09:00
3:29 AM,50.0,41.0,71,30.84,10.0,WSW,15.0,-,N/A,,Overcast,240,2013-09-04 09:29:00
3:49 AM,50.0,41.0,71,30.84,10.0,WSW,17.3,-,N/A,,Overcast,250,2013-09-04 09:49:00
4:09 AM,50.0,41.0,71,30.84,10.0,WSW,16.1,-,N/A,,Overcast,240,2013-09-04 10:09:00
4:29 AM,50.0,41.0,71,30.84,10.0,WSW,15.0,-,N/A,,Overcast,250,2013-09-04 10:29:00
4:49 AM,50.0,41.0,71,30.84,10.0,WSW,15.0,-,N/A,,Scattered Clouds,240,2013-09-04 10:49:00
5:09 AM,50.0,41.0,71,30.84,10.0,WSW,15.0,-,N/A,,Mostly Cloudy,240,2013-09-04 11:09:00
5:29 AM,50.0,41.0,71,30.85,10.0,WSW,13.8,-,N/A,,Overcast,240,2013-09-04 11:29:00
5:49 AM,50.0,41.0,71,30.86,10.0,WSW,12.7,-,N/A,,Overcast,240,2013-09-04 11:49:00
6:09 AM,50.0,41.0,71,30.86,10.0,SW,12.7,-,N/A,,Overcast,220,2013-09-04 12:09:00
6:29 AM,50.0,41.0,71,30.86,10.0,SSW,11.5,-,N/A,,Overcast,210,2013-09-04 12:29:00
6:49 AM,50.0,41.0,71,30.87,10.0,SSW,13.8,-,N/A,,Overcast,210,2013-09-04 12:49:00
7:09 AM,50.0,41.0,71,30.87,10.0,SSW,12.7,-,N/A,,Overcast,210,2013-09-04 13:09:00
7:29 AM,50.0,41.0,71,30.88,10.0,SSW,13.8,-,N/A,,Overcast,210,2013-09-04 13:29:00
7:49 AM,50.0,41.0,71,30.88,10.0,SSW,12.7,-,N/A,,Overcast,210,2013-09-04 13:49:00
8:09 AM,50.0,41.0,71,30.88,10.0,SW,15.0,-,N/A,,Overcast,220,2013-09-04 14:09:00
8:29 AM,50.0,42.8,76,30.89,10.0,SW,15.0,-,N/A,,Overcast,220,2013-09-04 14:29:00
8:49 AM,51.8,42.8,71,30.89,10.0,SW,15.0,-,N/A,,Overcast,230,2013-09-04 14:49:00
9:09 AM,51.8,42.8,71,30.89,10.0,SW,15.0,-,N/A,,Overcast,220,2013-09-04 15:09:00
9:29 AM,51.8,42.8,71,30.90,10.0,SW,12.7,-,N/A,,Overcast,220,2013-09-04 15:29:00
9:49 AM,53.6,44.6,72,30.90,10.0,SW,12.7,-,N/A,,Overcast,220,2013-09-04 15:49:00
10:09 AM,55.4,44.6,67,30.91,10.0,SW,8.1,-,N/A,,Scattered Clouds,220,2013-09-04 16:09:00
10:29 AM,57.2,44.6,63,30.91,10.0,SW,3.5,-,N/A,,Scattered Clouds,220,2013-09-04 16:29:00
10:49 AM,59.0,42.8,55,30.91,10.0,SSW,5.8,-,N/A,,Clear,200,2013-09-04 16:49:00
11:09 AM,59.0,44.6,59,30.91,10.0,South,5.8,-,N/A,,Clear,190,2013-09-04 17:09:00
11:29 AM,60.8,42.8,52,30.91,10.0,SSW,3.5,-,N/A,,Clear,200,2013-09-04 17:29:00
11:49 AM,62.6,44.6,52,30.91,10.0,Calm,Calm,-,N/A,,Mostly Cloudy,0,2013-09-04 17:49:00
12:09 PM,60.8,44.6,55,30.91,10.0,ENE,4.6,-,N/A,,Overcast,60,2013-09-04 18:09:00
12:29 PM,62.6,44.6,52,30.90,10.0,East,6.9,-,N/A,Thunderstorm,Overcast,90,2013-09-04 18:29:00
12:49 PM,60.8,44.6,55,30.90,10.0,ENE,8.1,-,N/A,Thunderstorm,Mostly Cloudy,70,2013-09-04 18:49:00
1:09 PM,59.0,44.6,59,30.90,10.0,SSE,6.9,-,N/A,Thunderstorm,Overcast,150,2013-09-04 19:09:00
1:29 PM,53.6,35.6,51,30.90,5.0,South,4.6,-,N/A,Rain-Thunderstorm,Light Thunderstorms and Rain,190,2013-09-04 19:29:00
1:49 PM,57.2,41.0,55,30.90,10.0,ESE,5.8,-,N/A,Thunderstorm,Thunderstorm,110,2013-09-04 19:49:00
2:09 PM,59.0,44.6,59,30.89,10.0,Calm,Calm,-,N/A,Thunderstorm,Thunderstorm,0,2013-09-04 20:09:00
2:29 PM,55.4,46.4,72,30.90,10.0,SW,4.6,-,N/A,Thunderstorm,Thunderstorm,220,2013-09-04 20:29:00
2:49 PM,57.2,42.8,59,30.90,10.0,South,3.5,-,N/A,Thunderstorm,Thunderstorm,190,2013-09-04 20:49:00
3:09 PM,57.2,44.6,63,30.89,10.0,WSW,5.8,-,N/A,Thunderstorm,Thunderstorm,240,2013-09-04 21:09:00
3:29 PM,57.2,44.6,63,30.89,10.0,SSW,3.5,-,N/A,Thunderstorm,Thunderstorm,200,2013-09-04 21:29:00
3:49 PM,60.8,42.8,52,30.89,10.0,East,4.6,-,N/A,Thunderstorm,Thunderstorm,90,2013-09-04 21:49:00
4:09 PM,60.8,44.6,55,30.89,10.0,East,13.8,17.3,N/A,Thunderstorm,Overcast,80,2013-09-04 22:09:00
4:29 PM,57.2,41.0,55,30.89,10.0,ENE,15.0,19.6,N/A,Thunderstorm,Thunderstorm,70,2013-09-04 22:29:00
4:49 PM,55.4,42.8,63,30.88,10.0,ENE,21.9,28.8,N/A,Thunderstorm,Thunderstorm,70,2013-09-04 22:49:00
5:09 PM,55.4,41.0,58,30.90,10.0,East,15.0,20.7,N/A,Thunderstorm,Thunderstorm,80,2013-09-04 23:09:00
5:29 PM,53.6,39.2,58,30.89,10.0,East,21.9,31.1,N/A,Rain-Thunderstorm,Light Thunderstorms and Rain,90,2013-09-04 23:29:00
5:49 PM,51.8,41.0,67,30.90,10.0,East,16.1,32.2,N/A,Thunderstorm,Drizzle,80,2013-09-04 23:49:00
6:09 PM,50.0,39.2,66,30.89,10.0,NE,12.7,-,N/A,Rain,Light Rain,50,2013-09-05 00:09:00
6:29 PM,50.0,41.0,71,30.88,10.0,ENE,16.1,-,N/A,Rain,Light Rain,60,2013-09-05 00:29:00
6:41 PM,50.0,41.0,71,30.88,10.0,ENE,17.3,-,N/A,Rain-Thunderstorm,Light Thunderstorms and Rain,60,2013-09-05 00:41:00